Location: Indian Hills
(32.9760°N, 85.9450°W)
Time: 02:26:20
(UTC+00:00)

OAO 3 Rocket - Pass Details

Date: 09 December 2019
Orbit: 630 x 682 km, 35.0° (Epoch: 26 January)

Event Time Altitude Azimuth Distance (km) Brightness Sun altitude
Rises 00:43:04 0° 275° (W) 2,934 7.7 -25.8°
Reaches altitude 10° 00:45:25 10° 278° (W) 2,033 6.6 -26.2°
Enters shadow 00:49:21 56° 309° (NW) 768 3.6 -27.0°
